Flag for Germany Weather past 2 weeks in Bad Kreuznach, Rhineland-Palatinate, Germany

Now
59 °F

Passing clouds.


Feels Like: 59 °F
Forecast: 53 / 73 °F
Wind: 3 mph from Northwest

Location: Wiesbaden Airport

Current Time: Aug 29, 2014 at 5:14:20 AM

Latest Report: Aug 29, 2014 at 4:58 AM


Visibility: N/A

Pressure: 29.98 "Hg

Humidity: 99%

Dew point: 59 °F

Location of Bad KreuznachLocation

Historic Weather in Bad Kreuznach — Graph

°F

Bad Kreuznach temperature yesterday

Maximum temperature yesterday: 73 °F (at 2:59 PM)
Minimum temperature yesterday: 52 °F (at 4:58 AM)
Average temperature yesterday: 63 °F

Past Weeks' High & Low Weather Summary

 TemperatureHumidityPressure
High73 °F (Aug 28, 2:59 PM)100% (Aug 14, 4:58 AM)30.14 "Hg (Aug 14, 4:58 AM)
Low45 °F (Aug 22, 6:58 AM)43% (Aug 21, 6:58 PM)29.66 "Hg (Aug 26, 8:04 AM)
Average59 °F78%29.95 "Hg
* Reported Aug 14 3:58 AM — Aug 29 3:58 AM, Bad Kreuznach, Weather by CustomWeather, © 2014

Note: Actual official high and low records may vary slightly from our data, if they occured in-between our weather recording intervals... More about our weather records

Advertising

Bad Kreuznach weather history for previous 24 hours

 ConditionsComfort  
Time TempWeatherWind HumidityBarometerVisibility
3:58 AM
Aug 29
59 °FPassing clouds.No wind100%29.98 "HgN/A
2:58 AM62 °FOvercast.No wind91%29.98 "HgN/A
1:58 AM61 °FPassing clouds.3 mph92%29.98 "HgN/A
12:58 AM63 °FPartly cloudy.3 mph87%29.99 "HgN/A
11:58 PM
Aug 28
64 °FOvercast.2 mph83%29.99 "HgN/A
10:58 PM65 °FPassing clouds.1 mph81%30.01 "HgN/A
9:58 PM66 °FPassing clouds.No wind78%30.01 "HgN/A
8:58 PM69 °FOvercast.3 mph73%30.00 "HgN/A
7:58 PM71 °FCloudy.3 mph67%30.00 "HgN/A
6:58 PM72 °FOvercast.7 mph65%30.00 "HgN/A
5:58 PM72 °FMostly cloudy.7 mph68%30.00 "HgN/A
4:58 PM73 °FOvercast.8 mph61%30.01 "HgN/A
3:58 PM72 °FScattered clouds.7 mph65%30.01 "HgN/A
2:59 PM73 °FScattered clouds.6 mph61%30.03 "HgN/A
2:58 PM73 °FLight rain. Scattered clouds.7 mph64%30.03 "HgN/A
1:58 PM70 °FPassing clouds.5 mph68%30.04 "HgN/A
12:58 PM69 °FPartly sunny.6 mph71%30.05 "HgN/A
11:58 AM66 °FPartly sunny.5 mph73%30.06 "HgN/A
10:58 AM64 °FSunny.6 mph73%30.07 "HgN/A
9:58 AM62 °FSunny.2 mph77%30.07 "HgN/A
8:58 AM59 °FSunny.1 mph82%30.07 "HgN/A
7:58 AM52 °FPassing clouds.No wind94%30.07 "HgN/A
6:58 AM52 °FOvercast.No wind94%30.06 "HgN/A
5:58 AM52 °FClear.No wind94%30.05 "HgN/A
Weather by CustomWeather, © 2014

See weather overviewHow to use our weather pages